Regional Weather Roundup
Issued by NWS

Home | Current Version | Previous Version | Text Only | Print | Product List | Glossary Off
Versions: 1 2 3 4 5 6 7 8 9 10 11 12 13 14 15 16 17 18 19 20 21 22 23 24 25 26 27 28 29 30 31 32 33 34 35 36 37 38 39 40 41 42 43 44 45 46 47 48 49 50

624
ASUS44 KJAN 301310
RWRMS

MISSISSIPPI HOURLY WEATHER ROUNDUP
NATIONAL WEATHER SERVICE JACKSON MS
800 AM CDT THU OCT 30 2014

NOTE: "FAIR: INDICATES FEW OR NO CLOUDS BELOW 12,000 FEET WITH NO
SIGNIFICANT WEATHER AND/OR OBSTRUCTIONS TO VISIBILITY.

MSZ001>002-007>008-010>013-018>021-025>028-034>036-301400-
NORTHWEST MISSISSIPPI

CITY           SKY/WX    TMP DP  RH WIND       PRES   REMARKS
CLARKSDALE     FAIR      46  46 100 CALM      30.18R
CLEVELAND      FAIR      46  46 100 CALM      30.17R
GREENWOOD      CLEAR     43  41  93 NE3       30.16S
GREENVILLE     PTCLDY    45  44  97 NW3       30.17R
GRENADA        FAIR      41  41 100 CALM      30.17S
OLIVE BRANCH   CLEAR     41  41 100 CALM      30.17R
OXFORD         FAIR      39  37  93 CALM      30.18S
TUNICA         FOG       43  41  93 CALM      30.18R VSB 3/4
$$

MSZ003>006-009-014>017-022>024-029>033-037>039-301400-
NORTHEAST MISSISSIPPI

CITY           SKY/WX    TMP DP  RH WIND       PRES   REMARKS
COLUMBUS AFB   CLEAR     45  45 100 CALM      30.16R
CORINTH        FAIR      37  37 100 CALM      30.17R
GOLDN TRIANGLE CLEAR     43  41  93 NW3       30.14R
STARKVILLE     FAIR      41  41 100 CALM      30.16R
TUPELO         CLEAR     44  40  85 NE3       30.16R
$$

MSZ040-058-301400-
CENTRAL MISSISSIPPI

CITY           SKY/WX    TMP DP  RH WIND       PRES   REMARKS
JACKSON INTL   CLEAR     43  42  97 CALM      30.16R
JACKSON HAWKNS CLEAR     46  43  89 CALM      30.16R
MERIDIAN KEY   CLEAR     42  40  92 CALM      30.15R
MERIDIAN NAS   CLEAR     41  39  93 NW3       30.15R
RAYMOND        FAIR      41  37  87 CALM      30.16S
VICKSBURG      FOG       41  39  93 CALM      30.16S VSB 1/4
$$

MSZ059>079-301400-
SOUTH MISSISSIPPI

CITY           SKY/WX    TMP DP  RH WIND       PRES   REMARKS
BROOKHAVEN     FAIR      45  43  93 N3        30.16R
COLUMBIA         N/A     43  43 100 MISG      30.13R
HATTIESBURG    CLEAR     49  45  86 CALM      30.14R
MCCOMB         CLEAR     52  42  69 N5        30.13R
NATCHEZ        CLEAR     45  41  87 NE5       30.15S
PINE BELT      CLEAR     48  41  76 N7        30.14R
$$

MSZ080>082-301400-
COASTAL MISSISSIPPI

CITY           SKY/WX    TMP DP  RH WIND       PRES   REMARKS
BAY ST LOUIS   CLEAR     54  46  76 N5        30.11R
BILOXI         CLEAR     57  46  66 NE10      30.10R
PASCAGOULA     CLEAR     55  49  80 N7        30.10R
GULFPORT       CLEAR     56  44  64 N7        30.10R
$$



USA.gov is the U.S. government's official web portal to all federal, state and local government web resources and services.